GW4075 Weather Reports


time (UTC)temp
C
wind
direction
speed
KPH
gust
KPH
rain 1hr
cm
rain 24hr
cm
rain mn
cm
humidity
%
barometer
mb
20260506174503 11 119 8.0 16.1 0.00 0.03 0.00 47 1012.6
20260506173004 10 121 4.8 16.1 0.00 0.03 0.00 49 1013.0
20260506171506 10 98 8.0 17.7 0.00 0.03 0.00 43 1013.1
20260506170005 10 94 3.2 24.1 0.00 0.03 0.00 50 1012.8
20260506164504 11 84 8.0 20.9 0.00 0.05 0.00 49 1012.7
20260506163004 11 86 6.4 17.7 0.00 0.05 0.00 49 1012.8
20260506161511 11 65 8.0 20.9 0.00 0.05 0.00 44 1012.6
20260506160004 11 109 3.2 16.1 0.00 0.05 0.00 47 1012.5
20260506154503 11 360 4.8 22.5 0.00 0.05 0.00 48 1012.4
20260506153002 12 90 8.0 20.9 0.00 0.05 0.00 43 1012.3
20260506151507 11 68 9.7 20.9 0.00 0.05 0.00 46 1012.1
20260506150013 11 67 6.4 14.5 0.00 0.05 0.00 49 1011.9
20260506144502 11 61 3.2 12.9 0.00 0.05 0.00 45 1011.9
20260506143002 11 350 1.6 12.9 0.00 0.05 0.00 49 1011.9
20260506141503 11 66 6.4 16.1 0.00 0.05 0.00 50 1011.9
20260506140010 11 89 4.8 19.3 0.00 0.05 0.00 52 1011.7
20260506134502 10 123 4.8 17.7 0.00 0.05 0.00 54 1011.5
20260506133002 10 86 6.4 11.3 0.00 0.05 0.00 54 1011.5
20260506131507 10 74 4.8 12.9 0.00 0.05 0.00 58 1011.3
20260506130004 9 88 3.2 11.3 0.00 0.05 0.00 61 1011.1
20260506124503 9 121 1.6 9.7 0.00 0.05 0.00 64 1011.0
20260506123002 8 84 1.6 4.8 0.00 0.05 0.00 67 1010.9
20260506121502 7 127 1.6 6.4 0.00 0.05 0.00 65 1010.5
20260506120002 7 93 0.0 9.7 0.00 0.05 0.00 67 1010.4
20260506114502 7 126 1.6 4.8 0.00 0.05 0.00 66 1010.1
20260506113002 6 66 1.6 6.4 0.00 0.05 0.00 67 1010.1
20260506111504 6 115 0.0 3.2 0.00 0.05 0.00 68 1009.8
20260506110002 7 107 0.0 1.6 0.00 0.05 0.00 70 1009.7
20260506104511 7 107 1.6 4.8 0.00 0.05 0.00 69 1009.7
20260506103007 7 104 0.0 3.2 0.00 0.05 0.00 70 1009.3
20260506101507 7 94 0.0 4.8 0.00 0.05 0.00 69 1009.3
20260506100003 7 118 0.0 3.2 0.00 0.05 0.00 71 1009.0
20260506094504 7 118 0.0 0.0 0.00 0.05 0.00 73 1008.9
20260506093004 7 118 0.0 1.6 0.00 0.05 0.00 69 1009.1
20260506091504 7 153 0.0 3.2 0.00 0.05 0.00 73 1008.7
20260506090004 7 138 0.0 1.6 0.00 0.05 0.00 72 1008.5
20260506084503 6 150 0.0 4.8 0.00 0.08 0.00 74 1008.3
20260506083006 6 89 0.0 3.2 0.00 0.08 0.00 83 1008.5
20260506081506 7 89 0.0 0.0 0.00 0.08 0.00 85 1008.4
20260506073059 7 89 0.0 0.0 0.00 0.10 0.00 86 1008.5
20260506073005 7 89 0.0 0.0 0.00 0.10 0.00 86 1008.5
20260506071504 7 89 0.0 0.0 0.00 0.10 0.00 86 1008.5
20260506061503 7 89 0.0 0.0 0.00 0.15 0.00 86 1008.8
20260506044504 7 89 0.0 1.6 0.00 0.28 0.00 85 1008.8
20260506043008 7 89 0.0 0.0 0.00 0.28 0.00 85 1008.9
20260506041502 7 89 0.0 0.0 0.00 0.28 0.00 84 1008.9
20260506040008 7 89 0.0 0.0 0.00 0.28 0.28 84 1008.9
20260506034502 7 89 0.0 0.0 0.00 0.28 0.28 83 1008.6
20260506033004 7 89 0.0 0.0 0.00 0.28 0.28 82 1008.3
20260506031502 8 89 0.0 0.0 0.00 0.28 0.28 82 1008.5
20260506030003 8 89 0.0 0.0 0.00 0.30 0.28 81 1008.8
20260506024504 8 89 0.0 0.0 0.00 0.30 0.28 80 1008.7
20260506023003 8 89 0.0 0.0 0.00 0.30 0.28 80 1008.7
20260506021504 8 89 0.0 0.0 0.03 0.30 0.28 79 1008.7
20260506020004 8 89 0.0 0.0 0.03 0.30 0.28 76 1008.7
20260506014504 9 89 0.0 0.0 0.03 0.41 0.28 73 1008.3
20260506013005 10 89 0.0 0.0 0.03 0.41 0.28 71 1008.2
20260506011504 10 89 0.0 0.0 0.00 0.38 0.25 71 1008.0
20260506010010 10 89 0.0 0.0 0.00 0.38 0.25 69 1008.1
20260506004505 11 89 0.0 0.0 0.00 0.51 0.25 69 1007.9
20260506003005 11 89 0.0 0.0 0.00 0.51 0.25 67 1008.1
20260506001504 11 89 0.0 0.0 0.00 0.51 0.25 65 1008.0
20260506000004 11 69 0.0 3.2 0.00 0.51 0.25 60 1007.9
20260505234511 11 88 1.6 4.8 0.00 0.69 0.25 57 1007.7
20260505233004 11 96 1.6 4.8 0.00 0.69 0.25 59 1007.1
20260505231504 11 75 1.6 4.8 0.00 0.69 0.25 62 1007.0
20260505230005 12 105 1.6 9.7 0.00 0.69 0.25 64 1007.1
20260505224504 12 78 1.6 6.4 0.00 0.69 0.25 66 1007.1
20260505223004 12 67 1.6 4.8 0.00 0.69 0.25 69 1007.1
20260505221504 12 67 0.0 3.2 0.00 0.69 0.25 70 1007.1
20260505220004 12 67 0.0 4.8 0.00 0.69 0.25 70 1007.1
20260505214505 12 67 0.0 3.2 0.00 0.69 0.25 71 1007.3
20260505213006 11 67 0.0 4.8 0.00 0.69 0.25 72 1007.4
20260505211511 11 67 0.0 4.8 0.00 0.69 0.25 70 1007.1
20260505210006 11 67 0.0 4.8 0.00 0.69 0.25 72 1007.2
20260505204503 11 50 1.6 6.4 0.00 0.69 0.25 70 1007.3
20260505203004 11 65 0.0 11.3 0.00 0.69 0.25 68 1007.3
20260505201506 12 74 1.6 8.0 0.00 0.69 0.25 67 1007.4
20260505200004 12 59 1.6 8.0 0.00 0.69 0.25 69 1007.5
20260505194504 12 106 3.2 6.4 0.00 0.69 0.25 67 1007.4
20260505193002 12 39 3.2 9.7 0.00 0.69 0.25 68 1007.6
20260505191503 11 57 3.2 12.9 0.00 0.69 0.25 70 1007.4
20260505190010 11 68 1.6 8.0 0.00 0.69 0.25 71 1007.8
20260505184503 11 159 0.0 4.8 0.00 0.69 0.25 73 1007.7
20260505183004 11 96 3.2 8.0 0.00 0.69 0.25 71 1007.7
20260505181503 11 351 3.2 9.7 0.00 0.69 0.25 71 1007.5
20260505180004 12 90 3.2 9.7 0.00 0.69 0.25 70 1007.4